CW0134 Oulu FI current weather conditions

sailwx.info

Wind from 212 at 1 knots gusting 7

Air temperature 0.6° C
Dewpoint -0.3° C

Last reported at 2019-Dec-13 13:00 UTC.
Time now 2019-Dec-13 13:43 UTC

Location: N 65°06' E 025°24'.
View on Google Maps.

See reports from other nearby stations

  
Tides and Currents Weather Stations Pressure Air Temp Water Temp Dewpoint Dewpoint Depression Visibility Wind Speed Wind Dir Waves Ship Positions
date/time (UTC)wind fromknots sea level pressurealtimeterstation pressurevisibilityair tempwater tempwave heightnotes
2019-Dec-13 13:00 212 1 gusting 7 0.6
2019-Dec-13 12:55 175 0.6
2019-Dec-13 12:50 169 0.6
2019-Dec-13 12:45 192 2 gusting 6 0.6
2019-Dec-13 12:40 123 0 gusting 4 0.6
2019-Dec-13 12:35 134 0.6
2019-Dec-13 12:30 150 2 gusting 6 0.6
2019-Dec-13 12:25 143 0 gusting 5 0.6
2019-Dec-13 12:20 153 1 gusting 4 0.6
2019-Dec-13 12:15 182 0.6
2019-Dec-13 12:10 183 2 gusting 6 0.6
2019-Dec-13 12:05 103 1 gusting 6 0.6
2019-Dec-13 12:00 192 0 gusting 6 0.6
2019-Dec-13 11:55 170 0.6
2019-Dec-13 11:50 175 1 gusting 6 0.6
2019-Dec-13 11:45 157 1 gusting 6 0.6
2019-Dec-13 11:40 150 1 gusting 7 0.6
2019-Dec-13 11:15 188 0 gusting 5 0.6
2019-Dec-13 11:10 160 0 gusting 9 0.6
2019-Dec-13 11:05 158 2 gusting 9 0.6
2019-Dec-13 11:00 181 1 gusting 6 0.6
2019-Dec-13 10:55 159 0 gusting 6 0.6
2019-Dec-13 10:50 154 0.6
2019-Dec-13 10:45 151 0.6
2019-Dec-13 10:40 148 0 gusting 8 0.6
2019-Dec-13 10:35 173 0 gusting 5 0.6
2019-Dec-13 10:30 187 0 gusting 7 0.6
2019-Dec-13 10:25 144 0 gusting 7 0.6
2019-Dec-13 10:20 155 0 gusting 7 0.6
2019-Dec-13 10:15 155 0 gusting 7 0.6
2019-Dec-13 10:10 182 2 gusting 7 0.6
2019-Dec-13 10:05 162 0.6
2019-Dec-13 10:00 160 0.6
2019-Dec-13 09:55 113 1 gusting 4 0.6
2019-Dec-13 09:50 150 1 gusting 5 0.6
2019-Dec-13 09:45 183 1 gusting 6 0.6
2019-Dec-13 09:40 182 1 gusting 9 0.6
2019-Dec-13 09:35 161 3 gusting 9 0.6
2019-Dec-13 09:30 119 0 gusting 6 0.6
2019-Dec-13 09:25 168 0 gusting 6 0.6
2019-Dec-13 09:20 126 0 gusting 3 0.6
2019-Dec-13 09:15 102 0 gusting 6 0.6
2019-Dec-13 09:10 110 2 gusting 8 0.6
2019-Dec-13 09:05 155 3 gusting 8 -0.0
2019-Dec-13 09:00 131 -0.0
2019-Dec-13 08:55 188 0 gusting 6 -0.0
2019-Dec-13 08:50 168 1 gusting 6 -0.0
2019-Dec-13 08:45 069 1 gusting 6 -0.0
2019-Dec-13 08:40 184 0 gusting 3 -0.0
2019-Dec-13 08:35 152 -0.0
2019-Dec-13 08:30 138 0 gusting 5 -0.0
2019-Dec-13 08:25 144 -0.0
2019-Dec-13 08:20 132 -0.0
2019-Dec-13 08:15 152 -0.0
2019-Dec-13 08:10 139 3 gusting 6 -0.0
2019-Dec-13 08:05 156 -0.0
2019-Dec-13 08:00 159 -0.0
2019-Dec-13 07:55 173 0 gusting 5 -0.0
2019-Dec-13 07:50 178 0 gusting 5 -0.0
2019-Dec-13 07:45 142 1 gusting 6 -0.0
2019-Dec-13 07:40 158 1 gusting 6 -0.0
2019-Dec-13 07:35 171 -0.0
2019-Dec-13 07:30 126 -0.0
2019-Dec-13 07:25 141 0 gusting 6 -0.0
2019-Dec-13 07:20 127 0 gusting 6 -0.0
2019-Dec-13 07:15 199 0 gusting 6 -0.0
2019-Dec-13 07:10 155 0 gusting 6 -0.0
2019-Dec-13 07:05 144 0 gusting 7 -0.0
2019-Dec-13 07:00 139 0 gusting 7 -0.0
2019-Dec-13 06:55 173 0 gusting 6 -0.0
2019-Dec-13 06:50 121 0 gusting 6 -0.0
2019-Dec-13 06:45 150 0 gusting 4 -0.0
2019-Dec-13 06:40 167 0 gusting 4 -0.0
2019-Dec-13 06:35 190 0 gusting 4 -0.0
2019-Dec-13 06:30 189 0 gusting 4 -0.0
2019-Dec-13 06:25 173 0 gusting 5 -0.0
2019-Dec-13 06:20 168 0 gusting 2 -0.0
2019-Dec-13 06:15 178 -0.0
2019-Dec-13 06:10 163 1 gusting 11 -0.0
2019-Dec-13 06:05 121 0 gusting 11 -0.0
2019-Dec-13 06:00 074 1 gusting 6 -0.0
2019-Dec-13 05:55 153 0 gusting 6 -0.0
2019-Dec-13 05:50 116 2 gusting 6 -0.0
2019-Dec-13 05:45 161 0 gusting 5 -0.0
2019-Dec-13 05:40 148 1 gusting 5 -0.0
2019-Dec-13 05:35 118 1 gusting 6 -0.0
2019-Dec-13 05:30 151 2 gusting 6 -0.0
2019-Dec-13 05:25 150 0 gusting 9 -0.0
2019-Dec-13 05:20 126 0 gusting 9 -0.0
2019-Dec-13 05:15 190 1 gusting 6 -0.0
2019-Dec-13 05:10 130 0 gusting 6 -0.0
2019-Dec-13 05:05 148 2 gusting 7 -0.0
2019-Dec-13 05:00 146 3 gusting 7 -0.0
2019-Dec-13 04:55 113 -0.0
2019-Dec-13 04:50 117 1 gusting 7 -0.0
2019-Dec-13 04:45 146 1 gusting 6 -0.0
2019-Dec-13 04:40 108 2 gusting 6 -0.0
2019-Dec-13 04:35 142 1 gusting 6 -0.0
2019-Dec-13 04:30 171 1 gusting 7 -0.0
2019-Dec-13 04:25 114 1 gusting 7 -0.0
2019-Dec-13 04:20 155 1 gusting 5 -0.0
2019-Dec-13 04:15 173 1 gusting 6 -0.0
2019-Dec-13 04:10 144 1 gusting 6 -0.0
2019-Dec-13 04:05 110 1 gusting 6 -0.0
2019-Dec-13 04:00 140 2 gusting 6 -0.0
2019-Dec-13 03:55 142 -0.0
2019-Dec-13 03:50 160 1 gusting 11 -0.0
2019-Dec-13 03:45 155 3 gusting 11 -0.0
2019-Dec-13 03:40 167 1 gusting 7 -0.0
2019-Dec-13 03:35 122 2 gusting 8 -0.0
2019-Dec-13 03:30 175 2 gusting 8 -0.0
2019-Dec-13 03:25 156 0 gusting 6 -0.0
2019-Dec-13 03:20 171 3 gusting 6 -0.0
2019-Dec-13 03:15 143 3 gusting 7 -0.0
2019-Dec-13 03:10 096 2 gusting 6 -0.0
2019-Dec-13 03:05 153 1 gusting 6 -0.0
2019-Dec-13 03:00 134 0.6
2019-Dec-13 02:55 140 2 gusting 8 0.6
2019-Dec-13 02:50 122 2 gusting 7 -0.0
2019-Dec-13 02:45 132 0 gusting 8 0.6
2019-Dec-13 02:40 081 0 gusting 6 0.6
2019-Dec-13 02:35 121 0 gusting 8 0.6
2019-Dec-13 02:30 182 3 gusting 8 0.6
2019-Dec-13 02:25 131 2 gusting 7 0.6
2019-Dec-13 02:20 122 3 gusting 6 -0.0
2019-Dec-13 02:15 124 0 gusting 8 -0.0
2019-Dec-13 02:10 184 1 gusting 8 -0.0
2019-Dec-13 02:05 150 0 gusting 6 -0.0
2019-Dec-13 02:00 119 1 gusting 6 -0.0
2019-Dec-13 01:55 144 1 gusting 6 -0.0
2019-Dec-13 01:50 128 1 gusting 7 -0.0
2019-Dec-13 01:45 169 2 gusting 7 -0.0
2019-Dec-13 01:40 137 2 gusting 6 -0.0
2019-Dec-13 01:35 153 1 gusting 10 -0.0
2019-Dec-13 01:30 110 2 gusting 10 -0.0
2019-Dec-13 01:25 150 1 gusting 9 -0.0
2019-Dec-13 01:20 168 3 gusting 9 -0.0
2019-Dec-13 01:15 159 0 gusting 9 -0.0
2019-Dec-13 01:10 173 2 gusting 9 -0.0
2019-Dec-13 01:05 145 3 gusting 7 -0.0
2019-Dec-13 01:00 174 -0.0
2019-Dec-13 00:55 149 1 gusting 8 -0.0
2019-Dec-13 00:50 101 -0.0
2019-Dec-13 00:45 188 1 gusting 6 -0.0
2019-Dec-13 00:40 187 0 gusting 7 -0.0
2019-Dec-13 00:35 180 1 gusting 6 -0.0
2019-Dec-13 00:30 203 3 gusting 6 -0.0
2019-Dec-13 00:25 107 2 gusting 8 -0.0
2019-Dec-13 00:20 188 3 gusting 10 -0.0
2019-Dec-13 00:15 137 3 gusting 10 -0.0
2019-Dec-13 00:10 130 1 gusting 12 -0.0
2019-Dec-13 00:05 161 2 gusting 12 -0.0
2019-Dec-13 00:00 191 3 gusting 10 -0.0
2019-Dec-12 23:55 176 2 gusting 12 -0.0
2019-Dec-12 23:50 135 3 gusting 12 -0.0
2019-Dec-12 23:45 146 2 gusting 9 -0.0
2019-Dec-12 23:40 118 2 gusting 6 -0.0
2019-Dec-12 23:35 120 3 gusting 8 -0.0
2019-Dec-12 23:30 153 0 gusting 7 -0.0
2019-Dec-12 23:25 145 1 gusting 7 -0.0
2019-Dec-12 23:20 142 2 gusting 6 -0.0
2019-Dec-12 23:15 128 1 gusting 7 -0.0
2019-Dec-12 23:10 119 1 gusting 11 0.6
2019-Dec-12 23:05 161 5 gusting 11 0.6
2019-Dec-12 23:00 144 2 gusting 6 0.6
2019-Dec-12 22:55 113 2 gusting 7 0.6
2019-Dec-12 22:50 140 2 gusting 7 0.6
2019-Dec-12 22:45 124 1 gusting 7 0.6
2019-Dec-12 22:40 133 1 gusting 10 0.6
2019-Dec-12 22:35 148 1 gusting 6 0.6
2019-Dec-12 22:30 135 2 gusting 6 0.6
2019-Dec-12 22:25 107 0 gusting 6 0.6
2019-Dec-12 22:20 123 2 gusting 6 0.6
2019-Dec-12 22:15 159 2 gusting 7 0.6
2019-Dec-12 22:10 144 0 gusting 7 0.6
2019-Dec-12 22:05 143 2 gusting 11 0.6
2019-Dec-12 22:00 092 3 gusting 11 0.6
2019-Dec-12 21:55 150 2 gusting 7 0.6
2019-Dec-12 21:50 144 3 gusting 13 0.6
2019-Dec-12 21:45 113 3 gusting 9 0.6
2019-Dec-12 21:40 128 2 gusting 9 0.6
2019-Dec-12 21:35 107 2 gusting 9 0.6
2019-Dec-12 21:30 114 1 gusting 9 0.6
2019-Dec-12 21:25 125 3 gusting 9 0.6
2019-Dec-12 21:20 131 2 gusting 7 0.6
2019-Dec-12 21:15 180 1 gusting 13 0.6
2019-Dec-12 21:10 137 4 gusting 7 0.6
2019-Dec-12 21:05 146 2 gusting 6 0.6
2019-Dec-12 21:00 131 1 gusting 8 0.6
2019-Dec-12 20:55 162 3 gusting 8 0.6
2019-Dec-12 20:50 113 2 gusting 9 0.6
2019-Dec-12 20:45 081 3 gusting 7 0.6
2019-Dec-12 20:40 155 2 gusting 8 0.6
2019-Dec-12 20:35 130 2 gusting 8 0.6
2019-Dec-12 20:30 076 3 gusting 6 0.6
2019-Dec-12 20:25 169 1 gusting 12 0.6
2019-Dec-12 20:20 141 3 gusting 12 0.6
2019-Dec-12 20:15 131 2 gusting 10 0.6
2019-Dec-12 20:10 074 3 gusting 10 0.6
2019-Dec-12 20:05 198 3 gusting 8 1.1
2019-Dec-12 20:00 168 0 gusting 9 1.1
2019-Dec-12 19:55 182 3 gusting 9 1.1
2019-Dec-12 19:50 128 3 gusting 10 1.1
2019-Dec-12 19:45 166 0 gusting 10 1.1
2019-Dec-12 19:40 158 4 gusting 9 1.1
2019-Dec-12 19:35 182 3 gusting 9 1.1
2019-Dec-12 19:30 080 1 gusting 6 0.6
2019-Dec-12 19:27 169 2 gusting 10 0.6
2019-Dec-12 19:21 143 2 gusting 10 0.6
2019-Dec-12 19:05 158 1 gusting 9 0.6
2019-Dec-12 19:00 127 3 gusting 9 0.6
2019-Dec-12 18:55 156 1 gusting 7 0.6
2019-Dec-12 18:50 171 2 gusting 7 0.6
2019-Dec-12 18:45 140 0 gusting 6 0.6
2019-Dec-12 18:40 157 1 gusting 7 0.6
2019-Dec-12 18:35 152 2 gusting 7 0.6
2019-Dec-12 18:30 144 1 gusting 5 0.6
2019-Dec-12 18:25 162 2 gusting 10 0.6
2019-Dec-12 18:20 156 3 gusting 10 1.1
2019-Dec-12 18:15 218 2 gusting 10 1.1
2019-Dec-12 18:10 163 2 gusting 10 1.1
2019-Dec-12 18:05 082 1 gusting 6 1.1
2019-Dec-12 18:00 128 1 gusting 5 1.1
2019-Dec-12 17:55 153 1.1
2019-Dec-12 17:50 170 1 gusting 7 1.1
2019-Dec-12 17:45 159 2 gusting 9 1.1
2019-Dec-12 17:40 115 0 gusting 9 1.1
2019-Dec-12 17:35 160 2 gusting 10 1.1
2019-Dec-12 17:30 142 5 gusting 10 1.1
2019-Dec-12 17:25 153 2 gusting 9 1.1
2019-Dec-12 17:20 141 1 gusting 10 1.1
2019-Dec-12 17:15 157 1 gusting 10 1.1
2019-Dec-12 17:10 096 2 gusting 6 1.1
2019-Dec-12 17:05 144 1 gusting 6 1.1
2019-Dec-12 17:00 144 0 gusting 10 1.1
2019-Dec-12 16:55 146 1 gusting 10 1.1
2019-Dec-12 16:50 140 2 gusting 6 1.1
2019-Dec-12 16:45 106 1 gusting 9 1.1
2019-Dec-12 16:40 132 3 gusting 9 1.1
2019-Dec-12 16:35 173 1.1
2019-Dec-12 16:30 167 2 gusting 5 1.1
2019-Dec-12 16:25 150 0 gusting 6 1.1
2019-Dec-12 16:20 105 0 gusting 5 1.1
2019-Dec-12 16:15 123 1 gusting 7 1.1
2019-Dec-12 16:10 147 1 gusting 5 1.1
2019-Dec-12 16:05 150 0 gusting 5 1.1
2019-Dec-12 16:00 118 1 gusting 5 1.1
2019-Dec-12 15:55 168 1 gusting 5 1.1
2019-Dec-12 15:50 116 1.1
2019-Dec-12 15:45 142 1.1
2019-Dec-12 15:40 142 1.1
2019-Dec-12 15:35 143 0 gusting 6 1.7
2019-Dec-12 15:30 153 1 gusting 6 1.7
2019-Dec-12 15:25 143 1 gusting 6 1.7
2019-Dec-12 15:20 132 2 gusting 5 1.7
2019-Dec-12 15:15 147 1 gusting 5 1.7
2019-Dec-12 15:10 141 1 gusting 5 1.7
2019-Dec-12 15:05 155 2 gusting 6 1.7
2019-Dec-12 15:00 215 0 gusting 5 1.7
2019-Dec-12 14:55 172 0 gusting 5 1.7
2019-Dec-12 14:50 144 0 gusting 5 1.7
2019-Dec-12 14:45 167 1.7
2019-Dec-12 14:40 153 0 gusting 5 1.7
2019-Dec-12 14:35 156 0 gusting 6 1.7
2019-Dec-12 14:30 173 1 gusting 6 2.2
2019-Dec-12 14:25 163 0 gusting 6 2.2
2019-Dec-12 14:20 194 0 gusting 6 2.2
2019-Dec-12 14:15 164 0 gusting 6 2.2
2019-Dec-12 14:10 146 2 gusting 6 2.2
2019-Dec-12 14:05 169 0 gusting 6 2.2
2019-Dec-12 14:00 201 1 gusting 7 2.2
2019-Dec-12 13:55 121 2.2
2019-Dec-12 13:50 091 2 gusting 8 2.2
2019-Dec-12 13:45 130 3 gusting 8 2.2
2019-Dec-12 13:40 056 0 gusting 8 2.2
2019-Dec-12 13:35 129 2 gusting 8 2.2
2019-Dec-12 13:30 158 2 gusting 8 2.2
2019-Dec-12 13:25 149 0 gusting 6 2.2
2019-Dec-12 13:20 173 0 gusting 6 2.2
2019-Dec-12 13:15 129 2 gusting 9 2.2
2019-Dec-12 13:10 174 2 gusting 9 2.2
2019-Dec-12 13:05 180 0 gusting 6 2.2
2019-Dec-12 13:00 126 1 gusting 6 2.2
2019-Dec-12 12:55 153 1 gusting 5 2.2
2019-Dec-12 12:50 176 2.2
2019-Dec-12 12:45 173 2 gusting 5 2.2
2019-Dec-12 12:40 180 2.2
2019-Dec-12 12:35 121 0 gusting 6 2.2
2019-Dec-12 12:30 140 2.2
2019-Dec-12 12:25 144 1 gusting 7 2.2
2019-Dec-12 12:20 128 2 gusting 7 2.2
2019-Dec-12 12:15 165 1 gusting 6 2.2
2019-Dec-12 12:10 150 1 gusting 6 2.2
2019-Dec-12 12:05 161 1 gusting 6 2.2
2019-Dec-12 12:00 123 0 gusting 7 2.2
2019-Dec-12 11:55 124 1 gusting 7 2.2
2019-Dec-12 11:50 139 1 gusting 6 2.2
2019-Dec-12 11:45 145 1 gusting 6 2.2
2019-Dec-12 11:40 135 0 gusting 6 2.2
2019-Dec-12 11:35 127 0 gusting 5 2.2
2019-Dec-12 11:30 169 1 gusting 5 2.2
2019-Dec-12 11:25 200 1 gusting 6 2.2
2019-Dec-12 11:20 155 2.2
2019-Dec-12 11:15 161 1 gusting 5 2.2
2019-Dec-12 11:10 166 0 gusting 6 2.2
2019-Dec-12 11:05 159 1 gusting 4 2.2
2019-Dec-12 11:00 160 1 gusting 6 2.2
2019-Dec-12 10:55 176 0 gusting 6 2.2
2019-Dec-12 10:50 158 1 gusting 11 2.2
2019-Dec-12 10:45 119 2 gusting 11 2.2
2019-Dec-12 10:40 165 2.2
2019-Dec-12 10:35 165 0 gusting 6 2.2
2019-Dec-12 10:30 181 1 gusting 6 2.2
2019-Dec-12 10:25 117 1 gusting 6 2.2
2019-Dec-12 10:20 117 0 gusting 6 2.2
2019-Dec-12 10:15 109 0 gusting 6 2.2
2019-Dec-12 10:10 153 0 gusting 6 2.2
2019-Dec-12 10:05 144 2 gusting 6 2.2
2019-Dec-12 10:00 194 2 gusting 7 2.2
2019-Dec-12 09:55 167 3 gusting 6 2.2
2019-Dec-12 09:50 166 1 gusting 6 2.2
2019-Dec-12 09:45 193 2 gusting 6 2.2
2019-Dec-12 09:40 165 1 gusting 5 2.2
2019-Dec-12 09:35 175 2.2
2019-Dec-12 09:30 089 0 gusting 8 2.2
2019-Dec-12 09:25 124 0 gusting 6 2.2
2019-Dec-12 09:20 146 0 gusting 6 2.2
2019-Dec-12 09:15 162 1 gusting 6 2.8
2019-Dec-12 09:10 126 0 gusting 6 2.8
2019-Dec-12 09:05 125 0 gusting 6 2.8
2019-Dec-12 09:00 139 2.8
2019-Dec-12 08:55 150 0 gusting 5 2.8
2019-Dec-12 08:50 131 2.8
2019-Dec-12 08:45 184 2.8
2019-Dec-12 08:40 142 0 gusting 4 2.8
2019-Dec-12 08:35 186 0 gusting 6 2.8
2019-Dec-12 08:30 182 0 gusting 6 2.8
2019-Dec-12 08:25 173 0 gusting 7 2.8
2019-Dec-12 08:20 173 2 gusting 7 2.8
2019-Dec-12 08:15 178 1 gusting 7 2.8
2019-Dec-12 08:10 175 2.8
2019-Dec-12 08:05 159 0 gusting 9 2.8
2019-Dec-12 08:00 148 3 gusting 9 2.8
2019-Dec-12 07:55 187 2 gusting 9 2.8
2019-Dec-12 07:50 166 3 gusting 7 2.8
2019-Dec-12 07:45 252 1 gusting 7 2.8
2019-Dec-12 07:40 187 3 gusting 9 2.8
2019-Dec-12 07:35 160 2 gusting 9 2.8
2019-Dec-12 07:30 203 2 gusting 7 2.8
2019-Dec-12 07:25 186 2 gusting 6 2.8
2019-Dec-12 07:20 174 2 gusting 6 2.8
2019-Dec-12 07:05 155 4 gusting 10 2.8
2019-Dec-12 07:00 183 3 gusting 9 2.8
2019-Dec-12 06:55 197 1 gusting 8 2.2
2019-Dec-12 06:50 157 1 gusting 8 2.2
2019-Dec-12 06:45 155 1 gusting 6 2.2
2019-Dec-12 06:40 180 4 gusting 6 2.2
2019-Dec-12 06:35 201 1 gusting 10 2.2
2019-Dec-12 06:30 167 3 gusting 10 2.2
2019-Dec-12 06:25 161 2 gusting 7 2.2
2019-Dec-12 06:20 181 2 gusting 7 2.2
2019-Dec-12 06:15 160 0 gusting 6 2.2
2019-Dec-12 06:10 115 1 gusting 8 2.2
2019-Dec-12 06:05 106 2 gusting 10 2.2
2019-Dec-12 06:00 170 2 gusting 10 2.2
2019-Dec-12 05:55 149 2 gusting 10 2.2
2019-Dec-12 05:50 141 3 gusting 8 2.2
2019-Dec-12 05:45 181 4 gusting 8 2.2
2019-Dec-12 05:40 157 3 gusting 9 2.2
2019-Dec-12 05:35 150 3 gusting 9 2.2
2019-Dec-12 05:30 088 2 gusting 9 2.2
2019-Dec-12 05:25 174 0 gusting 11 2.2
2019-Dec-12 05:20 144 3 gusting 13 2.2
2019-Dec-12 05:15 159 4 gusting 13 2.2
2019-Dec-12 05:10 170 2 gusting 12 2.2
2019-Dec-12 05:05 171 4 gusting 12 2.2
2019-Dec-12 05:00 158 0 gusting 8 2.2
2019-Dec-12 04:55 171 2 gusting 11 2.2
2019-Dec-12 04:50 178 1 gusting 11 2.8
2019-Dec-12 04:45 196 2 gusting 6 2.8
2019-Dec-12 04:40 152 1 gusting 6 2.8
2019-Dec-12 04:35 188 0 gusting 7 2.8
2019-Dec-12 04:30 186 2 gusting 8 2.8
2019-Dec-12 04:25 190 2 gusting 9 2.8
2019-Dec-12 04:20 188 1 gusting 10 2.8
2019-Dec-12 04:15 198 2 gusting 10 2.8
2019-Dec-12 04:10 177 1 gusting 5 2.8
2019-Dec-12 04:05 168 1 gusting 7 2.8
2019-Dec-12 04:00 169 0 gusting 10 2.8
2019-Dec-12 03:55 142 2 gusting 10 2.8
2019-Dec-12 03:50 163 0 gusting 6 2.8
2019-Dec-12 03:45 148 0 gusting 6 2.8
2019-Dec-12 03:40 157 1 gusting 6 2.8
2019-Dec-12 03:35 195 2 gusting 6 2.8
2019-Dec-12 03:30 156 1 gusting 5 2.8
2019-Dec-12 03:10 183 1 gusting 8 2.8
2019-Dec-12 03:05 202 1 gusting 5 2.8
2019-Dec-12 03:00 183 1 gusting 7 2.8
2019-Dec-12 02:55 196 0 gusting 7 2.8
2019-Dec-12 02:50 186 2 gusting 8 2.8
2019-Dec-12 02:45 207 3 gusting 8 2.8
2019-Dec-12 02:40 187 3 gusting 6 2.8
2019-Dec-12 02:35 199 1 gusting 8 2.8
2019-Dec-12 02:30 166 3 gusting 8 2.8
2019-Dec-12 02:25 198 4 gusting 10 2.8
2019-Dec-12 02:20 204 1 gusting 7 2.8
2019-Dec-12 02:15 180 3 gusting 7 2.8
2019-Dec-12 02:10 216 4 gusting 7 2.8
2019-Dec-12 02:05 134 2 gusting 7 2.8
2019-Dec-12 02:00 221 0 gusting 7 2.8
2019-Dec-12 01:55 201 0 gusting 9 2.8
2019-Dec-12 01:50 194 2 gusting 9 2.8
2019-Dec-12 01:45 186 2 gusting 7 2.8
2019-Dec-12 01:40 170 3 gusting 7 2.8
2019-Dec-12 01:35 219 0 gusting 7 2.8
2019-Dec-12 01:30 215 3 gusting 8 2.8
2019-Dec-12 01:25 160 3 gusting 7 2.8
2019-Dec-12 01:20 198 2 gusting 6 2.8
2019-Dec-12 01:15 170 2 gusting 10 2.8
2019-Dec-12 01:10 196 3 gusting 10 2.8
2019-Dec-12 01:05 194 1 gusting 9 2.8
2019-Dec-12 01:00 185 0 gusting 6 2.8
2019-Dec-12 00:55 207 0 gusting 6 2.8
2019-Dec-12 00:50 213 2 gusting 6 2.8
2019-Dec-12 00:45 190 1 gusting 6 2.8
2019-Dec-12 00:40 186 2 gusting 6 2.8
2019-Dec-12 00:35 208 2 gusting 6 2.8
2019-Dec-12 00:30 162 2 gusting 6 2.8
2019-Dec-12 00:25 184 0 gusting 6 2.8
2019-Dec-12 00:20 196 0 gusting 7 2.8
2019-Dec-12 00:15 173 2 gusting 7 2.8
2019-Dec-12 00:10 207 0 gusting 7 2.8
2019-Dec-12 00:05 161 3 gusting 7 2.8
2019-Dec-12 00:00 149 1 gusting 5 2.8
2019-Dec-11 23:55 195 1 gusting 6 2.8
2019-Dec-11 23:50 180 0 gusting 9 2.8
2019-Dec-11 23:45 206 2 gusting 9 2.8
2019-Dec-11 23:40 144 3 gusting 6 2.8
2019-Dec-11 23:35 175 2 gusting 8 2.8
2019-Dec-11 23:30 206 2 gusting 8 2.8
2019-Dec-11 23:25 182 4 gusting 8 2.8
2019-Dec-11 23:20 198 3 gusting 8 2.8
2019-Dec-11 23:15 172 2.8
2019-Dec-11 23:10 168 2 gusting 8 2.8
2019-Dec-11 23:05 192 0 gusting 8 2.8
2019-Dec-11 23:00 187 0 gusting 8 2.8
2019-Dec-11 22:55 182 1 gusting 6 2.8
2019-Dec-11 22:50 227 2 gusting 6 2.8
2019-Dec-11 22:45 144 1 gusting 6 2.8
2019-Dec-11 22:40 188 2 gusting 8 2.8
2019-Dec-11 22:35 202 3 gusting 11 2.8
2019-Dec-11 22:30 217 3 gusting 6 2.8
2019-Dec-11 22:25 180 2 gusting 6 2.8
2019-Dec-11 22:20 178 2 gusting 8 2.8
2019-Dec-11 22:15 193 1 gusting 8 2.8
2019-Dec-11 22:10 184 3 gusting 7 2.8
2019-Dec-11 22:05 182 1 gusting 6 2.8
2019-Dec-11 22:00 194 1 gusting 6 2.8
2019-Dec-11 21:55 155 2 gusting 6 2.2
2019-Dec-11 21:50 219 1 gusting 6 2.2
2019-Dec-11 21:45 163 0 gusting 6 2.2
2019-Dec-11 21:40 184 1 gusting 6 2.2
2019-Dec-11 21:35 149 1 gusting 7 2.2
2019-Dec-11 21:30 157 0 gusting 7 2.2
2019-Dec-11 21:25 165 2.2
2019-Dec-11 21:20 196 1 gusting 6 2.2
2019-Dec-11 21:15 162 2 gusting 9 2.2
2019-Dec-11 21:10 192 2 gusting 9 2.2
2019-Dec-11 21:05 201 2 gusting 6 2.2
2019-Dec-11 21:00 221 1 gusting 7 2.2
2019-Dec-11 20:55 146 3 gusting 7 2.2
2019-Dec-11 20:50 164 1 gusting 5 2.2
2019-Dec-11 20:45 180 0 gusting 6 2.2
2019-Dec-11 20:40 194 1 gusting 8 2.2
2019-Dec-11 20:35 180 0 gusting 8 2.2
2019-Dec-11 20:30 209 2.2
2019-Dec-11 20:25 198 1 gusting 7 2.2
2019-Dec-11 20:20 168 2 gusting 7 2.2
2019-Dec-11 20:15 200 1 gusting 6 2.2
2019-Dec-11 20:10 198 1 gusting 6 2.2
2019-Dec-11 20:05 187 0 gusting 6 2.2
2019-Dec-11 20:00 153 1 gusting 7 2.2
2019-Dec-11 19:55 207 1 gusting 7 2.2
2019-Dec-11 19:50 184 3 gusting 7 2.2
2019-Dec-11 19:45 176 2 gusting 9 2.2
2019-Dec-11 19:40 193 2 gusting 9 1.7
2019-Dec-11 19:35 198 1 gusting 6 1.7
2019-Dec-11 19:30 196 2 gusting 6 1.7
2019-Dec-11 19:25 202 0 gusting 9 1.7
2019-Dec-11 19:20 191 2 gusting 9 1.7
2019-Dec-11 19:15 146 3 gusting 7 1.7
2019-Dec-11 19:10 186 3 gusting 6 1.7
2019-Dec-11 19:05 156 3 gusting 6 1.7
2019-Dec-11 19:00 161 1 gusting 10 1.7
2019-Dec-11 18:55 202 1 gusting 7 1.7
2019-Dec-11 18:50 213 2 gusting 7 1.7
2019-Dec-11 18:45 189 2 gusting 6 1.7
2019-Dec-11 18:40 159 2 gusting 6 1.7
2019-Dec-11 18:35 192 1 gusting 6 1.7
2019-Dec-11 18:30 187 1.7
2019-Dec-11 18:25 215 0 gusting 6 1.7
2019-Dec-11 18:20 201 2 gusting 10 1.7
2019-Dec-11 18:15 217 3 gusting 10 1.1
2019-Dec-11 18:10 185 3 gusting 7 1.1
2019-Dec-11 18:05 184 2 gusting 6 1.1
2019-Dec-11 18:00 186 3 gusting 7 1.1
2019-Dec-11 17:55 182 4 gusting 7 1.1
2019-Dec-11 17:50 196 3 gusting 10 1.1
2019-Dec-11 17:45 155 5 gusting 10 1.1
2019-Dec-11 17:40 182 3 gusting 12 1.1
2019-Dec-11 17:35 216 3 gusting 12 1.1
2019-Dec-11 17:30 221 4 gusting 9 1.1
2019-Dec-11 17:25 204 5 gusting 9 1.1
2019-Dec-11 17:20 190 2 gusting 11 1.1
2019-Dec-11 17:15 175 4 gusting 11 0.6
2019-Dec-11 17:10 176 5 gusting 12 0.6
2019-Dec-11 17:05 183 4 gusting 18 0.6
2019-Dec-11 17:00 188 4 gusting 18 0.6
2019-Dec-11 16:55 202 3 gusting 16 0.6
2019-Dec-11 16:50 159 6 gusting 16 0.6
2019-Dec-11 16:45 189 6 gusting 14 0.6
2019-Dec-11 16:40 147 3 gusting 11 0.6
2019-Dec-11 16:35 189 3 gusting 11 0.6
2019-Dec-11 16:30 187 3 gusting 13 0.6
2019-Dec-11 16:25 182 5 gusting 13 0.6
2019-Dec-11 16:20 180 5 gusting 11 0.6
2019-Dec-11 16:15 172 5 gusting 13 0.6
2019-Dec-11 16:10 139 4 gusting 14 0.6
2019-Dec-11 16:05 187 5 gusting 19 0.6
2019-Dec-11 16:00 212 9 gusting 19 0.6
2019-Dec-11 15:55 186 6 gusting 14 0.6
2019-Dec-11 15:50 203 5 gusting 20 0.6
2019-Dec-11 15:45 180 6 gusting 28 0.6
2019-Dec-11 15:40 202 10 gusting 28 -0.0
2019-Dec-11 15:35 184 7 gusting 20 -0.0
2019-Dec-11 15:30 195 5 gusting 14 -0.0
2019-Dec-11 15:25 170 5 gusting 16 -0.0
2019-Dec-11 15:20 203 7 gusting 16 -0.0
2019-Dec-11 15:15 142 6 gusting 14 -0.0
2019-Dec-11 15:10 205 2 gusting 16 -0.0
2019-Dec-11 15:05 135 2 gusting 19 -0.0
2019-Dec-11 15:00 197 7 gusting 19 -0.0
2019-Dec-11 14:55 198 10 gusting 21 -0.0
2019-Dec-11 14:50 124 6 gusting 18 -0.0
2019-Dec-11 14:45 223 6 gusting 18 -0.0
2019-Dec-11 14:40 188 6 gusting 16 -0.6
2019-Dec-11 14:35 194 5 gusting 23 -0.6
2019-Dec-11 14:30 150 8 gusting 23 -0.6
2019-Dec-11 14:25 178 5 gusting 19 -0.6
2019-Dec-11 14:20 141 4 gusting 22 -0.6
2019-Dec-11 13:55 142 6 gusting 15 -0.6
2019-Dec-11 13:50 181 2 gusting 13 -0.6
2019-Dec-11 13:45 117 6 gusting 19 -0.6
2019-Dec-11 13:40 181 6 gusting 19 -0.6
2019-Dec-11 13:35 142 6 gusting 19 -0.6
2019-Dec-11 13:30 160 3 gusting 11 -0.6
2019-Dec-11 13:25 176 6 gusting 13 -1.1
2019-Dec-11 13:20 173 2 gusting 15 -1.1
2019-Dec-11 13:15 137 2 gusting 15 -1.1
2019-Dec-11 13:10 129 6 gusting 13 -1.1
2019-Dec-11 13:05 102 5 gusting 13 -1.1
2019-Dec-11 13:00 138 7 gusting 13 -1.1